QPF
0.00 0.00 0.00 0.01 0.05 0.04 0.02 0.00 0.00 0.00 0.00 0.00 0.00 0.00 0.00 0.02 0.05 0.08 0.06 0.02 0.01 0.01 0.01 0.02 0.03 0.04 0.05 0.06 0.07 0.09 0.12 0.17 0.18 0.14 0.12 0.14 0.14 0.19 0.25 0.21 0.18 0.18 0.23 0.29 0.23 0.23 0.27 0.28 0.29
0.00 0.00 0.01 0.03 0.04 0.03 0.02 0.00 0.00 0.00 0.00 0.00 0.00 0.00 0.00 0.00 0.01 0.03 0.03 0.02 0.02 0.01 0.01 0.02 0.02 0.03 0.04 0.05 0.06 0.09 0.12 0.16 0.14 0.13 0.11 0.12 0.16 0.23 0.35 0.29 0.22 0.21 0.26 0.34 0.31 0.31 0.36 0.41 0.37
0.00 0.01 0.02 0.03 0.02 0.02 0.01 0.00 0.00 0.00 0.00 0.00 0.00 0.00 0.01 0.01 0.01 0.02 0.02 0.01 0.02 0.02 0.01 0.01 0.01 0.02 0.03 0.04 0.06 0.16 0.23 0.18 0.14 0.11 0.11 0.12 0.16 0.27 0.38 0.35 0.30 0.27 0.28 0.28 0.36 0.40 0.38 0.52 0.50
0.01 0.02 0.01 0.01 0.01 0.01 0.01 0.00 0.00 0.00 0.00 0.00 0.00 0.01 0.01 0.01 0.00 0.01 0.01 0.01 0.01 0.02 0.01 0.01 0.02 0.02 0.03 0.03 0.05 0.13 0.19 0.19 0.15 0.11 0.10 0.13 0.18 0.28 0.37 0.35 0.31 0.29 0.26 0.22 0.24 0.31 0.31 0.39 0.41
0.01 0.01 0.02 0.01 0.01 0.00 0.00 0.00 0.00 0.00 0.00 0.00 0.00 0.00 0.01 0.01 0.00 0.00 0.00 0.01 0.01 0.02 0.01 0.01 0.01 0.02 0.04 0.04 0.05 0.09 0.13 0.15 0.14 0.11 0.12 0.15 0.18 0.30 0.38 0.35 0.34 0.28 0.25 0.21 0.17 0.19 0.21 0.25 0.26
0.01 0.01 0.01 0.01 0.01 0.00 0.00 0.00 0.00 0.00 0.00 0.00 0.00 0.00 0.01 0.00 0.00 0.00 0.00 0.00 0.01 0.01 0.01 0.01 0.01 0.02 0.03 0.05 0.06 0.06 0.08 0.11 0.12 0.11 0.12 0.13 0.18 0.29 0.32 0.29 0.27 0.24 0.24 0.23 0.17 0.15 0.15 0.15 0.15
0.01 0.01 0.01 0.01 0.01 0.01 0.00 0.00 0.00 0.00 0.00 0.00 0.00 0.00 0.01 0.00 0.00 0.00 0.00 0.00 0.01 0.02 0.04 0.02 0.03 0.02 0.02 0.05 0.11 0.10 0.09 0.10 0.09 0.11 0.10 0.11 0.14 0.18 0.18 0.19 0.20 0.23 0.23 0.18 0.14 0.14 0.13 0.11 0.09
0.01 0.03 0.02 0.01 0.00 0.01 0.00 0.00 0.00 0.00 0.00 0.00 0.00 0.00 0.01 0.00 0.00 0.00 0.00 0.00 0.00 0.01 0.03 0.03 0.03 0.03 0.02 0.03 0.10 0.18 0.16 0.11 0.08 0.10 0.09 0.07 0.08 0.12 0.13 0.12 0.17 0.18 0.15 0.14 0.11 0.10 0.10 0.08 0.06
0.01 0.02 0.01 0.01 0.00 0.00 0.00 0.00 0.00 0.00 0.00 0.00 0.00 0.00 0.00 0.00 0.00 0.00 0.01 0.01 0.01 0.01 0.01 0.01 0.02 0.05 0.03 0.03 0.05 0.10 0.11 0.10 0.09 0.09 0.10 0.10 0.11 0.08 0.10 0.13 0.17 0.16 0.12 0.09 0.08 0.07 0.06 0.05 0.05
0.01 0.01 0.00 0.00 0.00 0.00 0.00 0.00 0.00 0.00 0.00 0.01 0.01 0.00 0.00 0.00 0.00 0.00 0.02 0.03 0.02 0.03 0.02 0.02 0.02 0.02 0.03 0.02 0.03 0.06 0.07 0.08 0.09 0.09 0.09 0.10 0.12 0.14 0.16 0.18 0.18 0.15 0.09 0.06 0.06 0.05 0.04 0.05 0.05
0.00 0.01 0.00 0.00 0.00 0.00 0.00 0.00 0.00 0.01 0.01 0.02 0.01 0.00 0.00 0.00 0.00 0.00 0.01 0.01 0.01 0.03 0.04 0.04 0.03 0.02 0.02 0.03 0.03 0.05 0.07 0.07 0.07 0.07 0.08 0.10 0.13 0.17 0.19 0.18 0.16 0.15 0.10 0.06 0.06 0.06 0.06 0.04 0.03
0.00 0.00 0.00 0.00 0.00 0.00 0.00 0.00 0.00 0.00 0.00 0.00 0.00 0.00 0.00 0.00 0.00 0.00 0.00 0.01 0.02 0.06 0.08 0.08 0.05 0.04 0.04 0.05 0.04 0.04 0.03 0.05 0.06 0.07 0.07 0.10 0.15 0.17 0.15 0.14 0.12 0.11 0.11 0.10 0.07 0.06 0.06 0.04 0.03
0.00 0.00 0.00 0.00 0.00 0.00 0.00 0.00 0.00 0.00 0.00 0.00 0.00 0.00 0.00 0.00 0.00 0.00 0.00 0.01 0.03 0.07 0.09 0.08 0.06 0.05 0.06 0.08 0.08 0.06 0.06 0.05 0.05 0.06 0.07 0.06 0.09 0.12 0.11 0.11 0.11 0.09 0.07 0.07 0.07 0.06 0.07 0.06 0.04
0.00 0.00 0.00 0.00 0.00 0.00 0.00 0.00 0.00 0.00 0.00 0.00 0.00 0.00 0.00 0.00 0.00 0.00 0.00 0.01 0.03 0.06 0.09 0.09 0.07 0.06 0.05 0.07 0.09 0.08 0.06 0.05 0.05 0.06 0.05 0.05 0.08 0.10 0.10 0.09 0.09 0.07 0.05 0.04 0.05 0.04 0.05 0.05 0.05
0.00 0.01 0.00 0.00 0.00 0.00 0.00 0.01 0.00 0.00 0.00 0.00 0.00 0.00 0.00 0.00 0.00 0.00 0.00 0.01 0.03 0.05 0.07 0.08 0.08 0.07 0.07 0.08 0.08 0.08 0.07 0.05 0.06 0.06 0.06 0.07 0.07 0.09 0.10 0.09 0.07 0.05 0.03 0.03 0.05 0.05 0.06 0.05 0.04
0.00 0.01 0.01 0.00 0.00 0.00 0.02 0.03 0.00 0.00 0.00 0.00 0.00 0.00 0.00 0.00 0.00 0.00 0.00 0.01 0.02 0.03 0.04 0.05 0.06 0.06 0.07 0.08 0.08 0.07 0.06 0.06 0.06 0.05 0.05 0.06 0.08 0.06 0.09 0.07 0.05 0.04 0.03 0.04 0.05 0.05 0.05 0.06 0.05
0.00 0.02 0.04 0.01 0.00 0.00 0.01 0.02 0.00 0.00 0.00 0.00 0.00 0.00 0.00 0.00 0.00 0.00 0.00 0.00 0.00 0.01 0.03 0.05 0.06 0.06 0.06 0.07 0.06 0.06 0.06 0.05 0.05 0.06 0.05 0.05 0.05 0.04 0.05 0.07 0.05 0.03 0.04 0.05 0.05 0.05 0.07 0.08 0.08
0.01 0.01 0.01 0.01 0.00 0.00 0.00 0.00 0.00 0.00 0.00 0.00 0.00 0.00 0.00 0.00 0.00 0.00 0.00 0.00 0.00 0.00 0.02 0.03 0.04 0.05 0.05 0.06 0.06 0.06 0.05 0.05 0.05 0.05 0.06 0.06 0.05 0.04 0.04 0.05 0.04 0.03 0.05 0.07 0.07 0.07 0.08 0.08 0.07
0.01 0.01 0.01 0.01 0.00 0.00 0.00 0.00 0.00 0.00 0.00 0.00 0.00 0.00 0.00 0.00 0.00 0.00 0.00 0.00 0.00 0.00 0.01 0.02 0.03 0.04 0.05 0.05 0.06 0.06 0.06 0.06 0.05 0.05 0.05 0.07 0.06 0.04 0.05 0.04 0.07 0.05 0.07 0.07 0.06 0.09 0.11 0.09 0.07
0.01 0.02 0.01 0.00 0.00 0.00 0.00 0.00 0.00 0.00 0.00 0.00 0.00 0.00 0.00 0.00 0.00 0.00 0.00 0.00 0.00 0.00 0.01 0.01 0.02 0.04 0.04 0.05 0.05 0.05 0.05 0.04 0.06 0.06 0.06 0.06 0.06 0.05 0.05 0.06 0.06 0.06 0.07 0.07 0.07 0.11 0.10 0.09 0.09
0.00 0.02 0.03 0.01 0.00 0.00 0.01 0.03 0.03 0.00 0.00 0.00 0.00 0.00 0.00 0.00 0.00 0.00 0.00 0.00 0.00 0.00 0.00 0.01 0.02 0.03 0.04 0.05 0.04 0.05 0.06 0.05 0.05 0.05 0.05 0.05 0.04 0.03 0.03 0.04 0.05 0.06 0.05 0.07 0.07 0.09 0.10 0.11 0.10
0.00 0.00 0.01 0.01 0.01 0.02 0.02 0.06 0.06 0.01 0.00 0.00 0.00 0.00 0.00 0.00 0.00 0.00 0.00 0.00 0.00 0.00 0.00 0.01 0.01 0.02 0.03 0.03 0.04 0.05 0.05 0.04 0.04 0.04 0.03 0.04 0.03 0.04 0.04 0.03 0.04 0.05 0.05 0.07 0.06 0.08 0.11 0.11 0.10
0.00 0.00 0.00 0.00 0.01 0.01 0.01 0.03 0.03 0.03 0.01 0.00 0.00 0.00 0.00 0.00 0.00 0.00 0.00 0.00 0.00 0.00 0.00 0.00 0.01 0.02 0.02 0.02 0.03 0.04 0.04 0.04 0.03 0.03 0.04 0.04 0.05 0.04 0.02 0.03 0.03 0.04 0.06 0.05 0.05 0.09 0.09 0.09 0.09
0.00 0.00 0.00 0.01 0.02 0.03 0.01 0.02 0.04 0.02 0.01 0.00 0.00 0.00 0.00 0.00 0.00 0.00 0.00 0.00 0.00 0.00 0.00 0.00 0.01 0.03 0.03 0.02 0.03 0.03 0.04 0.04 0.05 0.05 0.05 0.05 0.04 0.04 0.03 0.01 0.02 0.03 0.05 0.05 0.05 0.06 0.07 0.07 0.08
0.00 0.00 0.03 0.04 0.06 0.05 0.01 0.01 0.02 0.01 0.01 0.00 0.00 0.00 0.00 0.00 0.00 0.00 0.00 0.00 0.00 0.00 0.01 0.01 0.02 0.03 0.02 0.02 0.03 0.03 0.03 0.03 0.04 0.04 0.04 0.05 0.04 0.04 0.04 0.03 0.02 0.03 0.03 0.04 0.06 0.05 0.07 0.07 0.06
0.00 0.00 0.03 0.03 0.04 0.03 0.02 0.02 0.02 0.01 0.00 0.00 0.00 0.00 0.00 0.00 0.00 0.00 0.00 0.00 0.00 0.00 0.01 0.01 0.02 0.02 0.02 0.02 0.03 0.04 0.04 0.03 0.03 0.06 0.05 0.05 0.04 0.04 0.03 0.03 0.03 0.03 0.02 0.03 0.06 0.06 0.05 0.06 0.06
0.00 0.00 0.00 0.01 0.01 0.03 0.04 0.04 0.02 0.01 0.01 0.00 0.00 0.00 0.00 0.00 0.00 0.00 0.00 0.00 0.00 0.00 0.00 0.01 0.02 0.02 0.02 0.02 0.03 0.04 0.04 0.03 0.03 0.07 0.09 0.06 0.05 0.04 0.04 0.03 0.04 0.04 0.03 0.03 0.04 0.05 0.05 0.05 0.06
0.00 0.00 0.00 0.01 0.01 0.03 0.05 0.07 0.05 0.02 0.01 0.00 0.00 0.00 0.00 0.00 0.00 0.00 0.00 0.00 0.00 0.00 0.00 0.00 0.01 0.02 0.02 0.02 0.03 0.02 0.04 0.04 0.04 0.04 0.06 0.05 0.04 0.04 0.03 0.03 0.03 0.04 0.03 0.03 0.03 0.04 0.04 0.04 0.05
0.00 0.00 0.00 0.00 0.00 0.02 0.04 0.06 0.03 0.02 0.01 0.00 0.00 0.00 0.00 0.00 0.00 0.00 0.00 0.01 0.01 0.01 0.00 0.00 0.01 0.01 0.02 0.01 0.01 0.02 0.03 0.03 0.03 0.03 0.03 0.03 0.03 0.03 0.03 0.02 0.02 0.02 0.03 0.03 0.03 0.03 0.03 0.03 0.03
0.00 0.00 0.00 0.00 0.00 0.01 0.02 0.04 0.01 0.01 0.02 0.01 0.00 0.01 0.01 0.01 0.01 0.01 0.01 0.01 0.01 0.01 0.01 0.01 0.00 0.01 0.01 0.01 0.02 0.02 0.02 0.02 0.02 0.03 0.03 0.03 0.03 0.02 0.02 0.02 0.02 0.02 0.02 0.03 0.03 0.03 0.03 0.03 0.03
MSLP
1002.87 1003.91 1005.19 1006.53 1007.77 1008.78 1009.48 1009.87 1010.03 1010.05 1010.03 1010.08 1010.20 1010.41 1010.63 1010.82 1010.90 1010.85 1010.69 1010.47 1010.27 1010.14 1010.15 1010.29 1010.54 1010.85 1011.13 1011.33 1011.43 1011.43 1011.37 1011.31 1011.30 1011.39 1011.58 1011.85 1012.14 1012.41 1012.61 1012.72 1012.75 1012.74 1012.73 1012.75 1012.84 1013.00 1013.20 1013.41 1013.59
1003.10 1004.33 1005.77 1007.22 1008.50 1009.44 1010.00 1010.20 1010.12 1009.90 1009.68 1009.57 1009.61 1009.79 1010.06 1010.32 1010.51 1010.59 1010.54 1010.44 1010.32 1010.27 1010.33 1010.50 1010.77 1011.08 1011.36 1011.56 1011.67 1011.69 1011.66 1011.64 1011.69 1011.82 1012.04 1012.32 1012.62 1012.89 1013.08 1013.19 1013.23 1013.25 1013.27 1013.34 1013.47 1013.64 1013.83 1014.00 1014.11
1003.44 1004.82 1006.39 1007.91 1009.19 1010.07 1010.51 1010.53 1010.25 1009.84 1009.45 1009.20 1009.16 1009.31 1009.59 1009.90 1010.17 1010.33 1010.38 1010.35 1010.31 1010.32 1010.42 1010.62 1010.92 1011.24 1011.54 1011.77 1011.91 1011.97 1011.99 1012.02 1012.10 1012.25 1012.48 1012.75 1013.03 1013.27 1013.44 1013.54 1013.60 1013.65 1013.72 1013.85 1014.01 1014.20 1014.37 1014.49 1014.53
1003.76 1005.26 1006.91 1008.47 1009.75 1010.59 1010.95 1010.86 1010.47 1009.93 1009.42 1009.09 1008.98 1009.08 1009.34 1009.66 1009.94 1010.14 1010.23 1010.25 1010.25 1010.30 1010.44 1010.68 1011.01 1011.37 1011.70 1011.98 1012.16 1012.27 1012.34 1012.41 1012.51 1012.68 1012.89 1013.14 1013.37 1013.57 1013.71 1013.80 1013.87 1013.95 1014.07 1014.24 1014.43 1014.63 1014.78 1014.84 1014.81
1003.95 1005.50 1007.19 1008.78 1010.07 1010.91 1011.25 1011.15 1010.73 1010.16 1009.62 1009.25 1009.09 1009.15 1009.36 1009.63 1009.88 1010.05 1010.14 1010.16 1010.18 1010.27 1010.44 1010.73 1011.09 1011.50 1011.88 1012.20 1012.43 1012.59 1012.69 1012.79 1012.91 1013.07 1013.27 1013.48 1013.67 1013.82 1013.94 1014.01 1014.09 1014.19 1014.34 1014.53 1014.74 1014.93 1015.05 1015.06 1014.96
1003.93 1005.49 1007.17 1008.76 1010.05 1010.92 1011.32 1011.28 1010.94 1010.45 1009.98 1009.63 1009.47 1009.48 1009.62 1009.82 1009.99 1010.09 1010.13 1010.13 1010.16 1010.27 1010.49 1010.82 1011.23 1011.68 1012.10 1012.45 1012.72 1012.90 1013.03 1013.14 1013.27 1013.42 1013.59 1013.77 1013.94 1014.06 1014.15 1014.22 1014.29 1014.39 1014.55 1014.74 1014.95 1015.11 1015.20 1015.16 1015.00
1003.74 1005.24 1006.86 1008.40 1009.69 1010.60 1011.09 1011.20 1011.02 1010.70 1010.36 1010.10 1009.98 1009.98 1010.07 1010.16 1010.23 1010.25 1010.22 1010.20 1010.23 1010.37 1010.63 1011.01 1011.47 1011.95 1012.39 1012.76 1013.02 1013.20 1013.32 1013.42 1013.54 1013.68 1013.85 1014.02 1014.17 1014.28 1014.36 1014.42 1014.48 1014.58 1014.72 1014.89 1015.07 1015.21 1015.26 1015.19 1014.99
1003.50 1004.88 1006.39 1007.84 1009.08 1010.02 1010.62 1010.89 1010.92 1010.81 1010.67 1010.56 1010.52 1010.54 1010.58 1010.60 1010.58 1010.51 1010.42 1010.38 1010.42 1010.59 1010.89 1011.32 1011.82 1012.31 1012.75 1013.09 1013.32 1013.46 1013.55 1013.63 1013.72 1013.86 1014.02 1014.20 1014.36 1014.48 1014.56 1014.61 1014.66 1014.74 1014.85 1014.99 1015.14 1015.24 1015.26 1015.17 1014.96
1003.38 1004.61 1005.94 1007.24 1008.39 1009.31 1009.97 1010.40 1010.63 1010.76 1010.84 1010.91 1010.99 1011.06 1011.09 1011.07 1010.98 1010.84 1010.71 1010.65 1010.71 1010.91 1011.26 1011.72 1012.23 1012.72 1013.13 1013.42 1013.59 1013.67 1013.70 1013.73 1013.80 1013.93 1014.10 1014.29 1014.47 1014.61 1014.71 1014.76 1014.80 1014.85 1014.92 1015.02 1015.13 1015.20 1015.20 1015.10 1014.91
1003.54 1004.59 1005.71 1006.80 1007.80 1008.64 1009.31 1009.83 1010.23 1010.57 1010.86 1011.11 1011.33 1011.48 1011.54 1011.50 1011.38 1011.21 1011.07 1011.00 1011.07 1011.30 1011.68 1012.15 1012.66 1013.12 1013.48 1013.70 1013.79 1013.80 1013.76 1013.74 1013.78 1013.89 1014.07 1014.29 1014.49 1014.66 1014.78 1014.83 1014.86 1014.88 1014.91 1014.97 1015.03 1015.08 1015.08 1015.00 1014.84
1004.05 1004.92 1005.81 1006.66 1007.44 1008.13 1008.74 1009.29 1009.80 1010.28 1010.74 1011.17 1011.52 1011.76 1011.88 1011.87 1011.75 1011.58 1011.43 1011.38 1011.46 1011.70 1012.08 1012.55 1013.03 1013.44 1013.74 1013.88 1013.90 1013.83 1013.73 1013.66 1013.67 1013.78 1013.96 1014.19 1014.42 1014.61 1014.74 1014.80 1014.81 1014.80 1014.80 1014.81 1014.85 1014.88 1014.89 1014.83 1014.71
1004.90 1005.60 1006.25 1006.84 1007.37 1007.87 1008.35 1008.86 1009.39 1009.96 1010.54 1011.09 1011.56 1011.90 1012.09 1012.14 1012.05 1011.91 1011.78 1011.74 1011.83 1012.06 1012.42 1012.85 1013.28 1013.63 1013.86 1013.95 1013.90 1013.78 1013.63 1013.53 1013.52 1013.61 1013.79 1014.03 1014.27 1014.47 1014.60 1014.65 1014.65 1014.62 1014.59 1014.57 1014.59 1014.62 1014.63 1014.61 1014.53
1005.95 1006.49 1006.92 1007.26 1007.54 1007.82 1008.15 1008.55 1009.06 1009.64 1010.28 1010.91 1011.46 1011.90 1012.17 1012.28 1012.27 1012.17 1012.07 1012.04 1012.12 1012.33 1012.64 1013.01 1013.38 1013.67 1013.85 1013.89 1013.81 1013.66 1013.50 1013.38 1013.36 1013.43 1013.60 1013.83 1014.06 1014.25 1014.38 1014.42 1014.41 1014.36 1014.31 1014.28 1014.28 1014.31 1014.34 1014.34 1014.30
1006.97 1007.39 1007.63 1007.76 1007.83 1007.92 1008.08 1008.37 1008.79 1009.34 1009.98 1010.64 1011.25 1011.75 1012.11 1012.31 1012.37 1012.34 1012.29 1012.27 1012.34 1012.50 1012.75 1013.06 1013.35 1013.59 1013.73 1013.75 1013.67 1013.53 1013.38 1013.27 1013.24 1013.30 1013.44 1013.63 1013.84 1014.01 1014.11 1014.15 1014.13 1014.07 1014.02 1013.98 1013.98 1014.01 1014.05 1014.07 1014.05
1007.74 1008.06 1008.18 1008.16 1008.09 1008.04 1008.08 1008.26 1008.60 1009.08 1009.67 1010.31 1010.94 1011.49 1011.92 1012.20 1012.36 1012.42 1012.42 1012.43 1012.49 1012.61 1012.79 1013.02 1013.25 1013.44 1013.55 1013.58 1013.53 1013.43 1013.31 1013.22 1013.19 1013.23 1013.34 1013.48 1013.63 1013.76 1013.85 1013.88 1013.86 1013.81 1013.76 1013.74 1013.74 1013.77 1013.82 1013.84 1013.82
1008.13 1008.37 1008.42 1008.35 1008.23 1008.13 1008.12 1008.23 1008.48 1008.88 1009.40 1009.98 1010.58 1011.14 1011.62 1012.00 1012.25 1012.41 1012.49 1012.55 1012.60 1012.69 1012.81 1012.97 1013.14 1013.29 1013.40 1013.45 1013.45 1013.40 1013.33 1013.27 1013.23 1013.24 1013.29 1013.37 1013.46 1013.55 1013.60 1013.62 1013.62 1013.60 1013.57 1013.57 1013.59 1013.62 1013.66 1013.69 1013.66
1008.08 1008.27 1008.33 1008.30 1008.24 1008.19 1008.20 1008.29 1008.49 1008.80 1009.20 1009.69 1010.21 1010.75 1011.25 1011.70 1012.05 1012.32 1012.50 1012.62 1012.71 1012.78 1012.86 1012.96 1013.07 1013.20 1013.31 1013.39 1013.44 1013.45 1013.43 1013.39 1013.34 1013.31 1013.29 1013.30 1013.32 1013.35 1013.38 1013.40 1013.42 1013.43 1013.45 1013.48 1013.52 1013.56 1013.60 1013.61 1013.58
1007.66 1007.86 1008.00 1008.11 1008.21 1008.30 1008.41 1008.53 1008.69 1008.89 1009.15 1009.48 1009.89 1010.34 1010.83 1011.32 1011.77 1012.15 1012.45 1012.66 1012.79 1012.88 1012.94 1013.00 1013.08 1013.18 1013.29 1013.41 1013.51 1013.57 1013.59 1013.56 1013.49 1013.40 1013.31 1013.23 1013.18 1013.15 1013.15 1013.18 1013.23 1013.30 1013.36 1013.43 1013.50 1013.56 1013.60 1013.60 1013.56
1007.04 1007.29 1007.59 1007.93 1008.27 1008.58 1008.83 1009.02 1009.13 1009.20 1009.28 1009.41 1009.63 1009.95 1010.38 1010.87 1011.39 1011.88 1012.30 1012.62 1012.83 1012.96 1013.03 1013.07 1013.12 1013.21 1013.32 1013.46 1013.60 1013.70 1013.74 1013.72 1013.62 1013.48 1013.31 1013.14 1013.00 1012.92 1012.90 1012.94 1013.02 1013.13 1013.26 1013.37 1013.47 1013.55 1013.59 1013.60 1013.56
1006.39 1006.76 1007.29 1007.91 1008.55 1009.12 1009.55 1009.79 1009.85 1009.76 1009.61 1009.48 1009.45 1009.58 1009.89 1010.35 1010.91 1011.49 1012.03 1012.47 1012.78 1012.97 1013.06 1013.11 1013.15 1013.22 1013.34 1013.50 1013.66 1013.79 1013.86 1013.83 1013.70 1013.50 1013.25 1013.00 1012.78 1012.65 1012.60 1012.64 1012.75 1012.91 1013.07 1013.23 1013.36 1013.46 1013.51 1013.53 1013.51
1005.88 1006.42 1007.22 1008.17 1009.12 1009.96 1010.55 1010.83 1010.81 1010.52 1010.09 1009.65 1009.33 1009.22 1009.36 1009.75 1010.31 1010.97 1011.61 1012.17 1012.58 1012.85 1012.99 1013.05 1013.10 1013.17 1013.29 1013.46 1013.64 1013.79 1013.87 1013.84 1013.69 1013.43 1013.12 1012.79 1012.51 1012.32 1012.23 1012.27 1012.39 1012.57 1012.78 1012.97 1013.12 1013.23 1013.30 1013.33 1013.34
1005.58 1006.35 1007.44 1008.70 1009.96 1011.02 1011.74 1012.03 1011.89 1011.37 1010.64 1009.88 1009.24 1008.86 1008.81 1009.08 1009.63 1010.33 1011.06 1011.71 1012.23 1012.57 1012.77 1012.86 1012.92 1013.00 1013.13 1013.30 1013.51 1013.68 1013.77 1013.74 1013.58 1013.29 1012.93 1012.54 1012.20 1011.95 1011.83 1011.84 1011.95 1012.14 1012.35 1012.55 1012.72 1012.83 1012.90 1012.95 1012.98
1005.51 1006.51 1007.87 1009.41 1010.91 1012.14 1012.94 1013.20 1012.91 1012.17 1011.15 1010.07 1009.13 1008.50 1008.26 1008.41 1008.91 1009.63 1010.42 1011.16 1011.76 1012.18 1012.43 1012.55 1012.63 1012.71 1012.85 1013.05 1013.27 1013.46 1013.58 1013.56 1013.40 1013.10 1012.71 1012.28 1011.88 1011.58 1011.41 1011.38 1011.47 1011.63 1011.83 1012.02 1012.17 1012.28 1012.34 1012.39 1012.44
1005.61 1006.81 1008.39 1010.12 1011.78 1013.12 1013.94 1014.14 1013.72 1012.77 1011.52 1010.19 1009.01 1008.17 1007.77 1007.83 1008.28 1009.00 1009.83 1010.63 1011.29 1011.76 1012.05 1012.20 1012.29 1012.38 1012.53 1012.73 1012.97 1013.19 1013.33 1013.34 1013.19 1012.89 1012.48 1012.03 1011.59 1011.24 1011.02 1010.94 1010.98 1011.10 1011.27 1011.42 1011.54 1011.62 1011.66 1011.69 1011.74
1005.80 1007.14 1008.84 1010.68 1012.40 1013.76 1014.56 1014.70 1014.17 1013.10 1011.70 1010.22 1008.91 1007.95 1007.46 1007.45 1007.87 1008.59 1009.43 1010.25 1010.94 1011.44 1011.75 1011.91 1012.00 1012.10 1012.24 1012.44 1012.69 1012.92 1013.08 1013.11 1012.98 1012.69 1012.28 1011.82 1011.35 1010.97 1010.69 1010.56 1010.54 1010.61 1010.71 1010.82 1010.89 1010.93 1010.93 1010.94 1010.96
1006.02 1007.41 1009.13 1010.96 1012.65 1013.97 1014.71 1014.80 1014.24 1013.14 1011.72 1010.22 1008.90 1007.93 1007.43 1007.41 1007.83 1008.53 1009.37 1010.18 1010.86 1011.35 1011.65 1011.81 1011.88 1011.95 1012.07 1012.26 1012.49 1012.71 1012.88 1012.92 1012.80 1012.52 1012.12 1011.65 1011.18 1010.76 1010.44 1010.25 1010.18 1010.18 1010.23 1010.28 1010.30 1010.28 1010.24 1010.20 1010.18
1006.24 1007.58 1009.20 1010.92 1012.50 1013.72 1014.41 1014.48 1013.96 1012.94 1011.63 1010.27 1009.07 1008.21 1007.78 1007.81 1008.24 1008.93 1009.74 1010.51 1011.15 1011.59 1011.85 1011.96 1011.99 1012.02 1012.09 1012.23 1012.42 1012.61 1012.75 1012.78 1012.66 1012.39 1012.00 1011.53 1011.05 1010.61 1010.27 1010.03 1009.91 1009.85 1009.84 1009.83 1009.80 1009.73 1009.64 1009.54 1009.47
1006.49 1007.67 1009.11 1010.63 1012.03 1013.12 1013.76 1013.86 1013.46 1012.63 1011.57 1010.46 1009.50 1008.85 1008.57 1008.69 1009.14 1009.81 1010.56 1011.25 1011.80 1012.17 1012.35 1012.39 1012.35 1012.31 1012.31 1012.38 1012.49 1012.62 1012.71 1012.70 1012.55 1012.28 1011.89 1011.43 1010.95 1010.51 1010.15 1009.88 1009.71 1009.62 1009.56 1009.50 1009.42 1009.30 1009.17 1009.02 1008.89
1006.80 1007.76 1008.93 1010.19 1011.37 1012.32 1012.92 1013.10 1012.89 1012.34 1011.61 1010.86 1010.23 1009.84 1009.76 1009.98 1010.46 1011.08 1011.74 1012.32 1012.76 1013.01 1013.08 1013.03 1012.91 1012.78 1012.69 1012.67 1012.69 1012.72 1012.73 1012.65 1012.47 1012.17 1011.78 1011.32 1010.85 1010.42 1010.05 1009.77 1009.58 1009.44 1009.34 1009.25 1009.13 1008.98 1008.80 1008.61 1008.43
1007.20 1007.90 1008.78 1009.75 1010.69 1011.50 1012.07 1012.37 1012.38 1012.17 1011.82 1011.46 1011.18 1011.09 1011.20 1011.52 1012.00 1012.55 1013.09 1013.53 1013.82 1013.94 1013.91 1013.76 1013.54 1013.33 1013.15 1013.03 1012.94 1012.87 1012.78 1012.63 1012.39 1012.06 1011.65 1011.20 1010.75 1010.32 1009.96 1009.67 1009.46 1009.29 1009.16 1009.03 1008.88 1008.70 1008.49 1008.27 1008.05
Thickness
5842 5843 5840 5830 5807 5796 5787 5793 5800 5798 5800 5808 5809 5802 5790 5782 5771 5757 5782 5792 5790 5785 5779 5775 5773 5773 5773 5773 5772 5772 5771 5771 5771 5771 5771 5771 5771 5771 5771 5771 5770 5769 5768 5767 5766 5765 5764 5762 5760
5852 5850 5837 5822 5799 5783 5782 5797 5796 5800 5807 5813 5810 5802 5790 5784 5788 5783 5787 5791 5790 5786 5780 5775 5773 5772 5772 5772 5771 5771 5770 5770 5769 5769 5769 5769 5769 5769 5769 5768 5767 5766 5766 5764 5764 5763 5762 5760 5759
5853 5851 5828 5819 5805 5790 5786 5800 5802 5810 5817 5811 5801 5799 5789 5782 5788 5787 5790 5793 5791 5785 5779 5774 5772 5771 5771 5771 5770 5769 5769 5768 5768 5767 5767 5767 5766 5767 5766 5765 5764 5764 5763 5762 5761 5761 5759 5758 5757
5852 5842 5835 5822 5803 5806 5805 5809 5813 5809 5811 5812 5804 5788 5788 5795 5793 5793 5796 5795 5790 5785 5780 5774 5772 5771 5770 5769 5768 5767 5767 5767 5766 5766 5765 5765 5765 5765 5764 5763 5761 5761 5760 5759 5758 5757 5757 5757 5755
5855 5837 5826 5813 5808 5814 5820 5821 5819 5808 5805 5805 5799 5782 5780 5794 5800 5799 5797 5795 5790 5786 5781 5775 5772 5771 5769 5768 5767 5766 5766 5765 5765 5764 5764 5763 5763 5762 5761 5760 5759 5758 5758 5757 5756 5755 5755 5754 5753
5845 5845 5819 5804 5808 5818 5823 5827 5820 5810 5806 5805 5797 5783 5780 5795 5796 5797 5798 5795 5792 5786 5781 5774 5771 5770 5769 5768 5766 5766 5765 5764 5763 5763 5763 5761 5761 5760 5759 5758 5757 5757 5756 5756 5755 5754 5753 5752 5752
5842 5840 5825 5816 5810 5812 5821 5830 5820 5810 5806 5807 5806 5786 5784 5793 5798 5800 5798 5795 5792 5789 5782 5777 5773 5771 5769 5768 5767 5766 5764 5764 5763 5762 5762 5760 5759 5758 5757 5756 5756 5755 5755 5754 5754 5753 5753 5752 5753
5869 5847 5827 5822 5813 5811 5828 5831 5826 5816 5809 5819 5815 5791 5782 5794 5802 5800 5797 5794 5791 5789 5785 5780 5777 5774 5772 5770 5767 5766 5765 5763 5762 5762 5761 5760 5758 5757 5756 5756 5755 5755 5754 5753 5753 5753 5753 5753 5754
5881 5842 5824 5826 5821 5821 5834 5827 5827 5830 5819 5817 5817 5808 5802 5805 5803 5796 5791 5789 5786 5786 5785 5783 5780 5777 5775 5772 5769 5766 5765 5763 5762 5761 5760 5759 5758 5758 5757 5757 5755 5754 5754 5753 5753 5753 5754 5754 5754
5871 5836 5836 5847 5845 5836 5836 5830 5828 5822 5811 5807 5806 5807 5809 5805 5799 5791 5786 5782 5781 5781 5783 5783 5781 5779 5777 5775 5771 5769 5766 5764 5763 5761 5760 5760 5760 5760 5758 5756 5755 5754 5754 5754 5753 5753 5754 5754 5755
5868 5848 5854 5857 5857 5851 5840 5836 5837 5821 5806 5806 5801 5802 5804 5802 5797 5792 5788 5785 5783 5783 5783 5783 5781 5779 5777 5775 5773 5771 5768 5766 5764 5763 5762 5761 5761 5760 5758 5756 5755 5754 5754 5754 5754 5754 5755 5756 5757
5866 5863 5864 5861 5862 5854 5845 5840 5833 5826 5819 5823 5818 5812 5806 5800 5797 5793 5789 5787 5785 5783 5782 5783 5781 5778 5776 5775 5775 5773 5771 5768 5766 5763 5763 5762 5761 5761 5760 5759 5757 5757 5756 5756 5756 5756 5757 5758 5759
5866 5864 5867 5868 5865 5859 5851 5841 5833 5828 5832 5829 5822 5814 5807 5802 5800 5798 5795 5790 5786 5782 5782 5782 5780 5777 5776 5775 5774 5774 5772 5770 5767 5765 5763 5763 5763 5762 5761 5760 5759 5759 5758 5758 5757 5757 5757 5758 5759
5870 5868 5868 5868 5863 5859 5846 5839 5834 5829 5835 5827 5819 5813 5810 5805 5801 5798 5794 5789 5786 5784 5783 5782 5781 5778 5776 5775 5774 5773 5772 5770 5768 5766 5765 5764 5763 5762 5761 5760 5760 5760 5760 5760 5759 5758 5757 5757 5758
5876 5858 5856 5863 5863 5859 5848 5826 5832 5837 5836 5825 5819 5815 5812 5809 5805 5799 5796 5792 5790 5787 5785 5783 5782 5780 5777 5776 5775 5774 5773 5772 5769 5768 5766 5765 5764 5763 5762 5761 5761 5762 5762 5762 5760 5759 5758 5757 5758
5862 5845 5831 5855 5863 5861 5840 5811 5836 5845 5836 5825 5821 5817 5812 5809 5808 5805 5801 5797 5794 5790 5786 5785 5786 5781 5778 5776 5775 5775 5774 5772 5770 5769 5767 5766 5765 5764 5763 5763 5762 5763 5763 5762 5760 5759 5757 5756 5756
5844 5827 5825 5846 5866 5863 5844 5823 5840 5849 5840 5828 5824 5821 5815 5810 5809 5808 5806 5802 5798 5793 5789 5786 5785 5781 5779 5777 5776 5775 5774 5773 5771 5770 5769 5767 5766 5765 5764 5764 5763 5763 5762 5762 5761 5759 5757 5754 5754
5829 5833 5835 5840 5860 5861 5846 5837 5844 5850 5844 5834 5829 5825 5819 5813 5811 5812 5809 5806 5801 5796 5792 5788 5786 5783 5781 5778 5776 5775 5774 5773 5772 5770 5769 5768 5767 5766 5765 5764 5764 5764 5762 5761 5760 5757 5757 5755 5754
5849 5841 5840 5847 5866 5860 5848 5842 5845 5850 5847 5839 5833 5828 5822 5819 5819 5817 5813 5809 5803 5798 5793 5790 5786 5784 5782 5778 5775 5773 5772 5773 5772 5772 5770 5769 5768 5767 5766 5766 5764 5763 5762 5760 5759 5757 5755 5754 5755
5851 5839 5841 5850 5868 5860 5848 5843 5850 5851 5849 5846 5839 5833 5828 5823 5820 5816 5814 5811 5805 5799 5795 5791 5788 5786 5784 5781 5779 5777 5776 5775 5774 5773 5772 5771 5769 5768 5768 5765 5764 5763 5761 5759 5758 5757 5754 5753 5755
5852 5848 5846 5845 5857 5859 5844 5827 5833 5845 5853 5852 5849 5844 5838 5830 5822 5818 5815 5813 5809 5803 5798 5796 5792 5789 5786 5785 5783 5780 5778 5775 5774 5772 5772 5772 5771 5770 5768 5767 5766 5764 5763 5760 5759 5758 5754 5750 5752
5844 5862 5859 5851 5839 5833 5837 5799 5817 5834 5837 5846 5847 5847 5843 5839 5831 5825 5820 5816 5812 5808 5805 5800 5796 5792 5789 5787 5784 5780 5775 5772 5773 5774 5774 5773 5773 5771 5770 5769 5767 5765 5764 5762 5761 5759 5757 5753 5749
5860 5872 5864 5852 5839 5833 5836 5813 5811 5828 5824 5840 5848 5850 5849 5845 5839 5831 5826 5821 5818 5815 5809 5804 5799 5794 5792 5789 5786 5782 5780 5779 5779 5778 5775 5774 5774 5773 5772 5770 5768 5766 5764 5763 5761 5759 5757 5755 5752
5872 5864 5854 5848 5835 5812 5829 5821 5809 5824 5833 5843 5850 5854 5852 5849 5844 5837 5833 5827 5822 5819 5813 5807 5800 5796 5794 5791 5788 5784 5781 5780 5778 5776 5774 5774 5775 5774 5773 5772 5769 5767 5765 5763 5761 5760 5758 5756 5754
5862 5838 5813 5800 5797 5801 5831 5824 5824 5843 5852 5856 5854 5854 5856 5852 5846 5838 5832 5827 5823 5819 5815 5810 5802 5797 5795 5792 5789 5787 5784 5781 5779 5777 5776 5775 5775 5774 5774 5773 5770 5768 5767 5765 5763 5761 5759 5757 5755
5851 5840 5806 5786 5787 5803 5816 5809 5833 5859 5865 5868 5864 5861 5858 5853 5848 5841 5835 5830 5825 5821 5817 5811 5804 5799 5797 5794 5791 5788 5786 5784 5782 5780 5779 5778 5777 5777 5776 5774 5771 5769 5768 5767 5764 5762 5760 5758 5756
5843 5840 5847 5824 5810 5797 5801 5811 5834 5858 5859 5862 5861 5859 5855 5853 5849 5844 5839 5834 5829 5824 5819 5814 5807 5802 5799 5796 5792 5789 5787 5785 5784 5783 5781 5781 5779 5779 5777 5774 5772 5770 5768 5766 5764 5761 5760 5758 5756
5857 5851 5838 5819 5796 5784 5791 5795 5804 5826 5839 5851 5854 5853 5853 5853 5850 5846 5841 5837 5832 5828 5822 5818 5811 5805 5802 5799 5795 5792 5789 5787 5786 5784 5782 5780 5780 5779 5777 5774 5772 5770 5768 5766 5764 5761 5760 5757 5755
5840 5839 5836 5829 5820 5795 5780 5792 5829 5830 5842 5846 5850 5855 5854 5851 5847 5845 5842 5839 5834 5829 5823 5817 5811 5806 5802 5800 5797 5794 5791 5789 5786 5784 5783 5781 5779 5778 5775 5773 5771 5769 5766 5765 5762 5760 5759 5756 5754
5847 5841 5835 5815 5810 5813 5802 5802 5846 5844 5846 5849 5850 5853 5852 5849 5846 5843 5841 5837 5832 5828 5823 5818 5813 5808 5804 5801 5798 5795 5792 5789 5786 5784 5783 5781 5779 5777 5776 5773 5771 5769 5766 5764 5761 5758 5756 5754 5751